sat.trackr.live / text

‹ back to catalog

STARLINK-2680

NORAD 48432 · 2021-040E

PAYLOAD ACTIVE UNKNOWN

§ Identity

Operator
Country
US
Launch date
2021-05-09
Launch site
AFETR
Launch vehicle
Mass (kg)
RCS (m²)

Purposes: comms

External: N2YO · Heavens-Above · Gunter

§ Orbital elements

Epoch: 2026-09-20T04:41:58.566336Z

Period
94.01 min
Inclination
53.1603°
Eccentricity
0.0001139
Mean motion
15.31701828 rev/d
Perigee alt
470.0 km
Apogee alt
471.5 km
Semi-major
6,848.9 km
B*
2.5920e-5
RAAN
327.7089°
Arg perigee
89.8928°
Mean anomaly
270.2204°
Rev number
29,682

§ Raw data

STARLINK-26801 48432U 21040E   26263.19581674  .00000439  00000+0  25920-4 0  99952 48432  53.1603 327.7089 0001139  89.8928 270.2204 15.31701828296825

JSON: /api/v1/satellites/48432 · /tle

For live sub-satellite position, see the globe view (requires WebGL).

§ Visibility from observer

Set your observer location to see the next 7 days of passes ≥ 10°. The values pass through the URL so the page stays shareable.

No JS? Fill the form by hand. The geolocation button needs JavaScript.